Location: Unspecified
(44.0704°N, 88.6889°W)
Time: 10:31:56
(UTC+02:00)

Okean 3 - Pass Details

Date: 29 March 2019
Orbit: 578 x 600 km, 82.5° (Epoch: 16 October)

Event Time Altitude Azimuth Distance (km) Brightness Sun altitude
Exits shadow 11:51:36 11° 236° (SW) 1,852 5.4 -9.7°
Maximum altitude 11:54:48 24° 288° (WNW) 1,269 4.7 -9.2°
Drops below altitude 10° 11:58:18 10° 342° (NNW) 1,951 6.1 -8.6°
Sets 12:00:53 0° 357° (N) 2,857 7.1 -8.1°
